Flag for Colombia Weather past 2 weeks in Cali, Colombia

Now
79 °F

Passing clouds.


Feels Like: 81 °F
Forecast: 69 / 82 °F
Wind: 12 mph from Northwest

Location: Cali / Alfonso Bonillaaragon

Current Time: Apr 27, 2015 at 8:26:00 PM

Latest Report: Apr 27, 2015 at 7:00 PM


Visibility: N/A

Pressure: 29.83 "Hg

Humidity: 65%

Dew point: 66 °F

Location of CaliLocation

Historic Weather in Cali — Graph

°F

Cali temperature yesterday

Maximum temperature yesterday: 88 °F (at 2:00 PM)
Minimum temperature yesterday: 66 °F (at 5:00 AM)
Average temperature yesterday: 76 °F

Past Weeks' High & Low Weather Summary

 TemperatureHumidityPressure
High90 °F (Apr 18, 2:00 PM)100% (Apr 16, 7:00 AM)30.12 "Hg (Apr 16, 7:00 AM)
Low64 °F (Apr 17, 6:00 AM)43% (Apr 18, 2:00 PM)29.00 "Hg (Apr 26, 5:00 PM)
Average75 °F76%29.96 "Hg
* Reported Apr 12 7:00 PM — Apr 27 7:00 PM, Cali, Weather by CustomWeather, © 2015

Note: Actual official high and low records may vary slightly from our data, if they occured in-between our weather recording intervals... More about our weather records

Advertising

Cali weather history for previous 24 hours

 ConditionsComfort  
Time TempWeatherWind HumidityBarometerVisibility
7:00 PM
Mon, Apr 27
79 °FPassing clouds.12 mph65%29.83 "HgN/A
6:00 PM84 °FPassing clouds.12 mph55%29.80 "HgN/A
5:00 PM86 °FScattered clouds.14 mph52%29.77 "HgN/A
4:00 PM90 °FScattered clouds.14 mph46%29.77 "HgN/A
3:00 PM90 °FScattered clouds.12 mph49%29.79 "HgN/A
2:00 PM90 °FScattered clouds.6 mph46%29.82 "HgN/A
1:00 PM88 °FScattered clouds.6 mph49%29.85 "HgN/A
12:00 PM88 °FPassing clouds.3 mph52%29.89 "HgN/A
11:00 AM86 °FPassing clouds.3 mph55%29.92 "HgN/A
10:00 AM82 °FPassing clouds.5 mph62%29.94 "HgN/A
9:00 AM79 °FPassing clouds.2 mph70%29.96 "HgN/A
8:00 AM77 °FPassing clouds.No wind74%29.95 "HgN/A
7:00 AM68 °FPassing clouds.No wind94%29.93 "HgN/A
6:00 AM64 °FPassing clouds.5 mph100%29.90 "HgN/A
5:00 AM64 °FPassing clouds.No wind100%29.89 "HgN/A
4:00 AM66 °FPassing clouds.No wind94%29.88 "HgN/A
3:00 AM66 °FPassing clouds.No wind94%29.88 "HgN/A
2:00 AM68 °FPassing clouds.No wind94%29.89 "HgN/A
1:00 AM68 °FPassing clouds.No wind94%29.90 "HgN/A
12:00 AM70 °FPassing clouds.5 mph94%29.92 "HgN/A
11:00 PM
Sun, Apr 26
73 °FPassing clouds.6 mph83%29.93 "HgN/A
10:00 PM75 °FPassing clouds.7 mph74%29.93 "HgN/A
9:00 PM77 °FPassing clouds.9 mph74%29.92 "HgN/A
8:00 PM77 °FPassing clouds.8 mph74%29.89 "HgN/A
Weather by CustomWeather, © 2015

See weather overviewHow to use our weather pages